When you browse on this site, cookies collect data to enhance your experience and personalize the content and advertising you see.
Visit our Privacy Policy to learn more. By continuing to use the site, you agree to this use of cookies and data.
  • In Switzerland
  • List of Countries
  • For 7 days
  • Water Temperature
  • Weather Map
  • Weather Widgets
  • user-avatar
    Login

    Hourly Weather Zagorze

    Today, 15 September, Sunday

    Time Temperature Precipitation Wind Pressure Humidity
    00:00 +12°C° 0 mm 1 mps 756 mmHg 64%
    01:00 +12°C° 0 mm 2 mps 756 mmHg 66%
    02:00 +10°C° 0 mm 2 mps 755 mmHg 68%
    03:00 +10°C° 0 mm 2 mps 755 mmHg 71%
    04:00 +10°C° 0 mm 3 mps 754 mmHg 74%
    05:00 +10°C° 0 mm 3 mps 754 mmHg 71%
    06:00 +11°C° 0 mm 4 mps 753 mmHg 69%
    07:00 +12°C° 0 mm 4 mps 753 mmHg 66%
    08:00 +14°C° 0 mm 5 mps 752 mmHg 61%
    09:00 +16°C° 0 mm 5 mps 752 mmHg 55%
    10:00 +19°C° 0 mm 5 mps 751 mmHg 50%
    11:00 +20°C° 0 mm 6 mps 751 mmHg 49%
    12:00 +21°C° 0 mm 6 mps 750 mmHg 48%
    13:00 +23°C° 0 mm 6 mps 750 mmHg 47%
    14:00 +23°C° 0 mm 6 mps 749 mmHg 50%
    15:00 +22°C° 0 mm 5 mps 749 mmHg 52%
    16:00 +22°C° 0 mm 5 mps 748 mmHg 54%
    17:00 +21°C° 0 mm 5 mps 748 mmHg 58%
    18:00 +20°C° 0 mm 4 mps 748 mmHg 63%
    19:00 +18°C° 0 mm 4 mps 748 mmHg 67%
    20:00 +18°C° 0 mm 4 mps 748 mmHg 66%
    21:00 +17°C° 0 mm 4 mps 748 mmHg 66%
    22:00 +15°C° 0 mm 4 mps 747 mmHg 66%
    23:00 +14°C° 0 mm 3 mps 747 mmHg 65%

    Tomorrow, 16 September, Monday

    Time Temperature Precipitation Wind Pressure Humidity
    00:00 +14°C° 0 mm 3 mps 747 mmHg 64%
    01:00 +13°C° 0 mm 3 mps 747 mmHg 63%
    02:00 +13°C° 0 mm 3 mps 747 mmHg 63%
    03:00 +13°C° 0 mm 4 mps 747 mmHg 63%
    04:00 +14°C° 0 mm 4 mps 747 mmHg 63%
    05:00 +14°C° 0 mm 4 mps 747 mmHg 66%
    06:00 +14°C° 0 mm 4 mps 747 mmHg 69%
    07:00 +14°C° 0 mm 4 mps 747 mmHg 72%
    08:00 +13°C° 0.2 mm 4 mps 747 mmHg 76%
    09:00 +13°C° 0.2 mm 3 mps 747 mmHg 80%
    10:00 +13°C° 0.2 mm 3 mps 747 mmHg 84%
    11:00 +13°C° 0.1 mm 3 mps 746 mmHg 84%
    12:00 +13°C° 0.1 mm 4 mps 746 mmHg 85%
    13:00 +13°C° 0.1 mm 4 mps 746 mmHg 85%
    14:00 +13°C° 0.2 mm 3 mps 746 mmHg 86%
    15:00 +12°C° 0.2 mm 3 mps 745 mmHg 87%
    16:00 +12°C° 0.2 mm 3 mps 745 mmHg 88%
    17:00 +12°C° 0.8 mm 3 mps 745 mmHg 90%
    18:00 +12°C° 0.8 mm 3 mps 745 mmHg 91%
    19:00 +12°C° 0.8 mm 3 mps 745 mmHg 93%
    20:00 +11°C° 0.6 mm 3 mps 745 mmHg 92%
    21:00 +11°C° 0.6 mm 4 mps 745 mmHg 92%
    22:00 +11°C° 0.6 mm 4 mps 745 mmHg 91%
    23:00 +11°C° 0.1 mm 4 mps 745 mmHg 91%

    Day after tomorrow, 17 September, Tuesday

    Time Temperature Precipitation Wind Pressure Humidity
    00:00 +11°C° 0.1 mm 4 mps 745 mmHg 90%
    01:00 +11°C° 0.1 mm 4 mps 745 mmHg 89%
    02:00 +11°C° 0 mm 4 mps 745 mmHg 86%
    03:00 +10°C° 0 mm 4 mps 745 mmHg 84%
    04:00 +10°C° 0 mm 4 mps 745 mmHg 81%
    05:00 +9°C° 0 mm 5 mps 745 mmHg 80%
    06:00 +9°C° 0 mm 5 mps 745 mmHg 78%
    07:00 +9°C° 0 mm 6 mps 745 mmHg 76%
    08:00 +10°C° 0 mm 6 mps 745 mmHg 71%
    09:00 +11°C° 0 mm 7 mps 745 mmHg 65%
    10:00 +12°C° 0 mm 7 mps 745 mmHg 60%
    11:00 +13°C° 0.1 mm 8 mps 744 mmHg 58%
    12:00 +13°C° 0.1 mm 8 mps 744 mmHg 57%
    13:00 +13°C° 0.1 mm 9 mps 743 mmHg 55%
    14:00 +13°C° 0.1 mm 9 mps 743 mmHg 58%
    15:00 +12°C° 0.1 mm 8 mps 743 mmHg 62%
    16:00 +11°C° 0.1 mm 8 mps 743 mmHg 65%
    17:00 +11°C° 0.3 mm 8 mps 743 mmHg 68%
    18:00 +10°C° 0.3 mm 7 mps 743 mmHg 71%
    19:00 +9°C° 0.3 mm 7 mps 743 mmHg 74%
    20:00 +8°C° 0 mm 7 mps 743 mmHg 76%
    21:00 +8°C° 0 mm 7 mps 744 mmHg 77%
    22:00 +6°C° 0 mm 7 mps 744 mmHg 79%
    23:00 +6°C° 0 mm 7 mps 744 mmHg 79%

    18 September, Wednesday

    Time Temperature Precipitation Wind Pressure Humidity
    00:00 +6°C° 0 mm 7 mps 744 mmHg 79%
    01:00 +5°C° 0 mm 7 mps 745 mmHg 79%
    02:00 +5°C° 0 mm 7 mps 745 mmHg 80%
    03:00 +5°C° 0 mm 7 mps 745 mmHg 81%
    04:00 +5°C° 0 mm 7 mps 745 mmHg 82%
    05:00 +5°C° 0 mm 7 mps 746 mmHg 80%
    06:00 +5°C° 0 mm 7 mps 746 mmHg 79%
    07:00 +5°C° 0 mm 7 mps 747 mmHg 78%
    08:00 +8°C° 0 mm 7 mps 747 mmHg 72%
    09:00 +9°C° 0 mm 7 mps 748 mmHg 66%
    10:00 +11°C° 0 mm 7 mps 748 mmHg 61%
    11:00 +11°C° 0 mm 7 mps 748 mmHg 57%
    12:00 +12°C° 0 mm 7 mps 748 mmHg 54%
    13:00 +14°C° 0 mm 6 mps 748 mmHg 50%
    14:00 +14°C° 0.3 mm 6 mps 748 mmHg 51%
    15:00 +13°C° 0.3 mm 6 mps 748 mmHg 53%
    16:00 +13°C° 0.3 mm 6 mps 748 mmHg 54%
    17:00 +12°C° 0 mm 5 mps 748 mmHg 59%
    18:00 +11°C° 0 mm 4 mps 748 mmHg 64%
    19:00 +9°C° 0 mm 3 mps 748 mmHg 70%
    20:00 +9°C° 0 mm 3 mps 749 mmHg 71%
    21:00 +8°C° 0 mm 3 mps 749 mmHg 73%
    22:00 +8°C° 0 mm 3 mps 749 mmHg 75%
    23:00 +7°C° 0 mm 3 mps 749 mmHg 76%

    19 September, Thursday

    Time Temperature Precipitation Wind Pressure Humidity
    00:00 +7°C° 0 mm 3 mps 749 mmHg 78%
    01:00 +7°C° 0 mm 3 mps 749 mmHg 80%
    02:00 +5°C° 0 mm 3 mps 749 mmHg 81%
    03:00 +5°C° 0 mm 3 mps 749 mmHg 82%
    04:00 +5°C° 0 mm 3 mps 749 mmHg 83%
    05:00 +5°C° 0.1 mm 3 mps 749 mmHg 81%
    06:00 +6°C° 0.1 mm 4 mps 749 mmHg 80%
    07:00 +7°C° 0.1 mm 4 mps 749 mmHg 79%
    08:00 +8°C° 0.3 mm 4 mps 750 mmHg 74%
    09:00 +10°C° 0.3 mm 4 mps 750 mmHg 69%
    10:00 +11°C° 0.3 mm 4 mps 750 mmHg 65%
    11:00 +12°C° 0.3 mm 4 mps 750 mmHg 62%
    12:00 +13°C° 0.3 mm 4 mps 750 mmHg 59%
    13:00 +13°C° 0.3 mm 5 mps 750 mmHg 56%
    14:00 +13°C° 0.1 mm 4 mps 750 mmHg 56%
    15:00 +13°C° 0.1 mm 4 mps 750 mmHg 57%
    16:00 +13°C° 0.1 mm 4 mps 750 mmHg 57%
    17:00 +12°C° 0.4 mm 4 mps 750 mmHg 62%
    18:00 +11°C° 0.4 mm 4 mps 751 mmHg 68%
    19:00 +10°C° 0.4 mm 3 mps 751 mmHg 74%
    20:00 +8°C° 0.2 mm 4 mps 752 mmHg 74%
    21:00 +7°C° 0.2 mm 4 mps 752 mmHg 75%
    22:00 +6°C° 0.2 mm 4 mps 753 mmHg 76%
    23:00 +6°C° 0 mm 4 mps 753 mmHg 77%

    20 September, Friday

    Time Temperature Precipitation Wind Pressure Humidity
    00:00 +5°C° 0 mm 3 mps 754 mmHg 79%
    01:00 +4°C° 0 mm 3 mps 754 mmHg 80%
    02:00 +4°C° 0 mm 3 mps 754 mmHg 80%
    03:00 +4°C° 0 mm 3 mps 754 mmHg 80%
    04:00 +3°C° 0 mm 4 mps 754 mmHg 81%
    05:00 +4°C° 0 mm 4 mps 755 mmHg 78%
    06:00 +4°C° 0 mm 4 mps 755 mmHg 76%
    07:00 +5°C° 0 mm 4 mps 755 mmHg 74%
    08:00 +7°C° 0 mm 5 mps 756 mmHg 67%
    09:00 +8°C° 0 mm 5 mps 756 mmHg 61%
    10:00 +10°C° 0 mm 5 mps 756 mmHg 54%
    11:00 +10°C° 0 mm 5 mps 756 mmHg 50%
    12:00 +12°C° 0 mm 4 mps 756 mmHg 47%
    13:00 +13°C° 0 mm 4 mps 755 mmHg 43%
    14:00 +13°C° 0 mm 4 mps 755 mmHg 44%
    15:00 +12°C° 0 mm 4 mps 755 mmHg 45%
    16:00 +12°C° 0 mm 4 mps 755 mmHg 45%
    17:00 +11°C° 0 mm 3 mps 755 mmHg 49%
    18:00 +10°C° 0 mm 3 mps 755 mmHg 53%
    19:00 +9°C° 0 mm 2 mps 755 mmHg 57%
    20:00 +8°C° 0 mm 2 mps 755 mmHg 59%
    21:00 +8°C° 0 mm 2 mps 755 mmHg 60%
    22:00 +7°C° 0 mm 3 mps 755 mmHg 62%
    23:00 +7°C° 0 mm 3 mps 755 mmHg 64%
    Show more